Regional Weather Roundup
Issued by NWS Northern Indiana

Home | Current Version | Previous Version | Text Only | Print | Product List | Glossary Off
Versions: 1 2 3 4 5 6 7 8 9 10 11 12 13 14 15 16 17 18 19 20 21 22 23 24 25 26 27 28 29 30 31 32 33 34 35 36 37 38 39 40 41 42 43 44 45 46 47 48 49 50

000
ASUS43 KIWX 191000
RWRIWX

KIWX WEATHER ROUNDUP
NATIONAL WEATHER SERVICE NORTHERN INDIANA
600 AM EDT FRI SEP 19 2014

NOTE: "FAIR" INDICATES FEW OR NO CLOUDS BELOW 12,000 FEET WITH NO
SIGNIFICANT WEATHER AND/OR OBSTRUCTIONS TO VISIBILITY.

* THESE STATIONS ARE NOT UNDER NWS QUALITY CONTROL. THEY ALSO MAY NOT
  REPORT WEATHER SUCH AS PRECIPITATION OR FOG.

INZ001>027-191100-
NORTHERN INDIANA

CITY           SKY/WX    TMP DP  RH WIND       PRES   REMARKS
GARY*          CLEAR     57  52  82 E10       30.16R
VALPARAISO     CLEAR     47  46  97 CALM      30.17S FOG
KNOX*          CLEAR     49  46  92 SE3       30.16S
SOUTH BEND     CLEAR     52  50  93 E8        30.19S FOG
GOSHEN         CLEAR     52  49  89 SE6       30.19S FOG
WARSAW*        PTCLDY    50  50 100 E6        30.19S FOG
ANGOLA*        CLEAR     48  46  93 SE6       30.20F
FORT WAYNE     PTCLDY    49  48  97 E6        30.20S FOG
PERU/GRISSOM   CLEAR     51  51 100 E6        30.16S

$$
INZ028>050-191100-
CENTRAL INDIANA

CITY           SKY/WX    TMP DP  RH WIND       PRES   REMARKS
LAFAYETTE      CLEAR     49  46  90 NE5       30.15R
KOKOMO*        CLEAR     48  45  87 E5        30.17S
MUNCIE*        CLEAR     48  46  93 E3        30.17R
INDIANAPOLIS   NOT AVBL

$$
MIZ043>046-050>051-056>058-064>065-071>073-077>080-191100-
SOUTHWEST LOWER MICHIGAN

CITY           SKY/WX    TMP DP  RH WIND       PRES   REMARKS
BATTLE CREEK   CLOUDY    48  46  93 E6        30.21S FOG
BENTON HARBOR  CLEAR     51  50  96 SE7       30.17S FOG
COLDWATER*     CLEAR     48  47  95 E5        30.20S FOG
HILLSDALE*     CLEAR     46  46 100 CALM      30.21S FOG
HOLLAND        CLEAR     49  46  90 E6        30.20R FOG
GRAND RAPIDS   FOG       48  48 100 E7        30.21S VSB 3/4
KALAMAZOO      CLEAR     45  43  93 CALM      30.21R FOG
STURGIS*       CLEAR     48  48 100 SE3       30.19S FOG
THREE RIVERS*  FAIR      48  47  96 CALM      30.20S FOG

$$
OHZ001>008-015>018-024>025-191100-
NORTHWEST OHIO

CITY           SKY/WX    TMP DP  RH WIND       PRES   REMARKS
DEFIANCE       MOCLDY    50  47  89 NE5       30.22R FOG
FINDLAY        CLEAR     52  49  89 NE8       30.20R
TOLEDO EXPRESS CLEAR     47  45  93 CALM      30.22R
TOLEDO METCALF CLEAR     52  47  83 NE6       30.23R
LIMA           CLEAR     48  46  93 E7        30.19S FOG

$$
&&



USA.gov is the U.S. government's official web portal to all federal, state and local government web resources and services.